EW6083 Weather Reports


time (UTC)temp
F
wind
direction
speed
knots
gust
knots
rain 1hr
in
rain 24hr
in
rain mn
in
humidity
%
barometer
mb
20260503052948 42 0.0 0.0 0.00 0.17 0.00 66 1012.7
20260503051942 42 90 1.7 1.7 0.00 0.17 0.00 67 1012.7
20260503051016 42 90 1.7 1.7 0.00 0.18 0.00 67 1012.8
20260503045924 41 0.0 0.9 0.00 0.18 0.00 66 1013.1
20260503044918 41 135 0.9 1.7 0.00 0.18 0.00 65 1012.8
20260503043918 41 135 0.9 1.7 0.00 0.18 0.00 65 1012.9
20260503042914 41 0.0 0.0 0.00 0.18 0.00 65 1012.9
20260503041909 41 45 3.5 3.5 0.00 0.18 0.00 65 1013.1
20260503041005 40 90 0.9 1.7 0.00 0.18 0.00 64 1013.1
20260503035958 40 315 1.7 1.7 0.00 0.18 0.00 64 1013.0
20260503034953 40 0 1.7 2.6 0.00 0.18 0.00 64 1012.9
20260503033945 40 0 1.7 1.7 0.00 0.18 0.00 64 1013.0
20260503032939 40 45 1.7 1.7 0.00 0.18 0.00 65 1013.0
20260503031935 41 0 0.9 1.7 0.00 0.18 0.00 65 1012.9
20260503030931 41 338 1.7 1.7 0.00 0.18 0.00 65 1012.9
20260503025926 41 0 1.7 1.7 0.00 0.18 0.00 66 1013.0
20260503024921 41 0 1.7 1.7 0.00 0.18 0.00 69 1013.1
20260503023918 41 0 1.7 1.7 0.00 0.18 0.00 71 1012.9
20260503022912 40 0.0 0.9 0.00 0.18 0.00 72 1013.0
20260503021906 40 0 1.7 2.6 0.00 0.18 0.00 73 1013.2
20260503020906 40 45 0.9 1.7 0.00 0.18 0.00 73 1013.1
20260503015902 40 0.0 0.9 0.00 0.18 0.00 73 1013.1
20260503014917 40 90 0.9 1.7 0.00 0.18 0.00 73 1013.5
20260503013855 40 0 1.7 1.7 0.00 0.18 0.00 74 1013.2
20260503012905 40 45 0.9 1.7 0.00 0.18 0.00 73 1013.3
20260503011843 41 45 1.7 1.7 0.00 0.18 0.00 73 1013.5
20260503010839 41 45 0.9 1.7 0.00 0.18 0.00 73 1013.9
20260503005834 41 0 0.9 1.7 0.00 0.18 0.00 74 1013.5
20260503004850 41 45 0.9 1.7 0.00 0.18 0.00 75 1013.8
20260503003842 41 45 1.7 1.7 0.00 0.18 0.00 75 1013.8
20260503002822 41 90 1.7 2.6 0.00 0.18 0.00 75 1014.0
20260503001837 41 0 3.5 4.3 0.00 0.18 0.00 74 1013.8
20260503000810 41 90 3.5 5.2 0.00 0.18 0.00 73 1014.1
20260502235830 41 90 3.5 5.2 0.00 0.18 0.00 73 1014.3
20260502234847 41 90 3.5 4.3 0.00 0.18 0.00 72 1014.2
20260502233803 41 90 3.5 5.2 0.00 0.18 0.00 72 1014.3
20260502232759 42 90 3.5 4.3 0.00 0.18 0.00 71 1014.4
20260502231754 42 135 3.5 4.3 0.00 0.18 0.00 71 1014.4
20260502230749 42 90 3.5 4.3 0.00 0.18 0.00 70 1014.3
20260502225745 42 90 3.5 3.5 0.00 0.18 0.00 69 1014.3
20260502224742 42 135 2.6 3.5 0.00 0.18 0.00 68 1014.3
20260502223738 43 90 1.7 2.6 0.00 0.18 0.00 70 1014.4
20260502222731 43 90 1.7 2.6 0.00 0.18 0.00 70 1014.2
20260502221724 43 135 2.6 3.5 0.00 0.18 0.00 70 1014.5
20260502220721 43 135 1.7 1.7 0.00 0.18 0.00 70 1014.2
20260502215717 43 90 1.7 1.7 0.00 0.18 0.18 69 1014.6
20260502214734 43 90 0.9 1.7 0.00 0.18 0.18 69 1014.3
20260502213711 43 45 1.7 2.6 0.00 0.18 0.18 70 1014.5
20260502212706 43 45 1.7 2.6 0.00 0.18 0.18 70 1014.5
20260502211749 43 135 1.7 2.6 0.00 0.18 0.18 71 1014.4
20260502210658 43 90 1.7 2.6 0.00 0.18 0.18 71 1014.6
20260502205658 43 90 1.7 1.7 0.00 0.18 0.18 71 1014.5
20260502204652 44 90 0.9 1.7 0.00 0.18 0.18 71 1014.4
20260502203642 44 90 2.6 3.5 0.00 0.18 0.18 71 1014.7
20260502202643 44 158 1.7 2.6 0.00 0.18 0.18 71 1014.6
20260502201700 43 90 2.6 3.5 0.00 0.18 0.18 71 1014.4
20260502200654 43 45 1.7 1.7 0.00 0.18 0.18 70 1014.6
20260502195625 43 90 1.7 2.6 0.00 0.18 0.18 70 1014.6
20260502194623 43 315 1.7 1.7 0.00 0.18 0.18 69 1014.7
20260502193638 44 270 0.9 1.7 0.00 0.18 0.18 69 1014.6
20260502192637 44 270 2.6 4.3 0.00 0.18 0.18 69 1014.6
20260502191610 44 90 1.7 2.6 0.00 0.18 0.18 70 1014.7
20260502190610 44 45 1.7 1.7 0.00 0.18 0.18 70 1014.6
20260502185605 44 90 3.5 4.3 0.00 0.18 0.18 70 1014.5
20260502184600 44 90 1.7 2.6 0.00 0.18 0.18 70 1014.3
20260502183556 44 0.0 0.0 0.00 0.18 0.18 70 1014.5
20260502182551 45 315 2.6 3.5 0.00 0.18 0.18 70 1014.7
20260502181546 45 293 2.6 3.5 0.00 0.18 0.18 70 1014.4
20260502180542 45 270 0.9 1.7 0.00 0.18 0.18 70 1014.4
20260502170513 46 0 3.5 6.1 0.00 0.18 0.18 62 1014.5
20260502163507 48 0 3.5 4.3 0.00 0.18 0.18 57 1014.7
20260502162601 50 0 5.2 6.1 0.00 0.18 0.18 56 1014.5
20260502161556 54 90 1.7 3.5 0.00 0.18 0.18 62 1014.5
20260502160552 51 135 1.7 3.5 0.00 0.18 0.18 62 1014.5
20260502151529 47 270 2.6 3.5 0.00 0.18 0.18 67 1014.7
20260502150526 47 90 2.6 3.5 0.00 0.18 0.18 69 1014.6
20260502130537 43 270 1.7 1.7 0.00 0.18 0.18 82 1015.0
20260502123523 43 315 3.5 6.1 0.00 0.18 0.18 81 1014.7
20260502122559 43 315 3.5 4.3 0.00 0.18 0.18 81 1014.5
20260502121515 43 315 3.5 5.2 0.00 0.18 0.18 80 1014.6
20260502120512 44 293 4.3 6.1 0.00 0.18 0.18 80 1014.7
20260502115507 43 90 1.7 2.6 0.00 0.18 0.18 80 1014.3
20260502114506 44 315 3.5 4.3 0.00 0.18 0.18 81 1014.5
20260502113456 43 338 2.6 3.5 0.00 0.18 0.18 81 1014.6
20260502112516 43 0 3.5 4.3 0.00 0.18 0.18 82 1014.3
20260502111510 43 0 2.6 3.5 0.00 0.18 0.18 82 1014.4
20260502110447 44 0 3.5 3.5 0.00 0.18 0.18 83 1014.1
20260502105503 44 315 2.6 4.3 0.00 0.18 0.18 84 1014.1
20260502104436 44 315 5.2 6.1 0.01 0.18 0.18 85 1013.8
20260502103434 44 45 1.7 3.5 0.01 0.18 0.18 86 1013.8
20260502102427 44 45 3.5 4.3 0.01 0.18 0.18 86 1013.8
20260502101422 44 45 4.3 7.0 0.01 0.18 0.18 87 1013.9
20260502100417 44 45 2.6 3.5 0.02 0.18 0.18 88 1013.6
20260502091402 43 315 3.5 5.2 0.04 0.15 0.15 90 1013.3
20260502090356 43 293 2.6 3.5 0.04 0.15 0.15 90 1013.3
20260502071308 45 0 5.2 7.0 0.07 0.11 0.11 90 1012.1
20260502070305 46 0 6.1 7.0 0.08 0.11 0.11 83 1011.5
20260502065422 46 315 7.0 9.6 0.09 0.11 0.11 83 1011.8
20260502064417 47 0 5.2 6.1 0.08 0.09 0.09 82 1011.4
20260502063352 48 0 4.3 5.2 0.06 0.07 0.07 82 1011.7
20260502062350 48 315 3.5 5.2 0.04 0.05 0.05 82 1011.7
20260502061345 50 0 2.6 3.5 0.04 0.04 0.04 83 1011.7
20260502060401 50 315 1.7 1.7 0.02 0.02 0.02 82 1011.4
20260502055334 50 180 2.6 3.5 0.01 0.01 0.01 82 1011.1
20260502054329 50 225 1.7 2.6 0.01 0.01 0.01 81 1011.4